Location: Coll
(42.4728°N, 0.7714°E)
Time: 06:20:55
(UTC+00:00)

Cosmos 2026 Rocket - Pass Details

Date: 23 October 2020
Orbit: 939 x 1002 km, 82.9° (Epoch: 23 November)

Event Time Altitude Azimuth Distance (km) Brightness Sun altitude
Rises 05:23:52 0° 183° (S) 3,694 7.1 -11.0°
Reaches altitude 10° 05:26:22 10° 182° (S) 2,754 6.4 -10.5°
Maximum altitude 05:32:43 83° 96° (E) 1,014 4.2 -9.3°
Drops below altitude 10° 05:39:08 10° 9° (N) 2,782 6.4 -8.2°
Sets 05:41:40 0° 9° (N) 3,733 7.1 -7.7°
